Anoka County, MN

10:21 PM CDT on October 20, 2019 (GMT -0500)
Anoka County / Blaine Airport

Weather History for KANE - August, 2019

Change the Weather History Date:

Wednesday, August 7, 2019

  Actual Average Record
Temperature  
Mean Temperature 77 °F -  
Max Temperature 86 °F 77 °F 98 °F (2001)
Min Temperature 68 °F 58 °F 53 °F (2008)
Cooling Degree Days 12    
Growing Degree Days 27 (Base 50)    
Moisture  
Dew Point 62 °F    
Average Humidity 68    
Maximum Humidity 83    
Minimum Humidity 42    
Precipitation  
Precipitation 0.02 in - - ()
Sea Level Pressure  
Sea Level Pressure 29.79 in    
Wind  
Wind Speed 6 mph (WSW)    
Max Wind Speed 17 mph    
Max Gust Speed 25 mph    
Visibility 10 miles    
Events      
Averages and records for this station are not official NWS values.
T = Trace of Precipitation, MM = Missing Value Source: NWS Daily Summary

Daily Weather History Graph

Daily Weather History Graph

Search for Another Location

Airport or City:

Astronomy

Aug. 07, 2019 Rise Set
Actual Time 6:04 AM CDT 8:31 PM CDT
Civil Twilight 5:31 AM CDT 9:04 PM CDT
Nautical Twilight 4:50 AM CDT 9:46 PM CDT
Astronomical Twilight 4:03 AM CDT 10:32 PM CDT
Moon 1:58 PM CDT (8/7) 12:00 AM CDT (8/7)
Length of Visible Light 15h 33m
Length of Day
14h 27m
Waxing Crescent, 50% of the Moon is Illuminated
Aug 7
Waxing Crescent
Aug 7
First Quarter
Aug 15
Full
Aug 23
Last Quarter
Aug 30
New

Hourly Weather History & Observations

Time (CDT) Temp. Heat Index Dew Point Humidity Pressure Visibility Wind Dir Wind Speed Gust Speed Precip Events Conditions
12:15 AM 69.8 °F - 62.6 °F 78% 29.79 in 10.0 mi SSW 4.6 mph - N/A   Clear
12:19 AM 69.8 °F - 62.6 °F 78% 29.79 in 10.0 mi SSW 4.6 mph - N/A   Clear
12:38 AM 69.8 °F - 62.6 °F 78% 29.78 in 10.0 mi South 4.6 mph - N/A   Clear
12:55 AM 69.8 °F - 62.6 °F 78% 29.78 in 10.0 mi SSW 5.8 mph - N/A   Clear
1:16 AM 71.6 °F - 64.4 °F 78% 29.78 in 10.0 mi SSW 4.6 mph - N/A   Scattered Clouds
1:36 AM 71.6 °F - 64.4 °F 78% 29.78 in 10.0 mi SSW 4.6 mph - N/A   Mostly Cloudy
1:59 AM 69.8 °F - 62.6 °F 78% 29.78 in 10.0 mi SSW 4.6 mph - N/A   Scattered Clouds
2:16 AM 71.6 °F - 62.6 °F 73% 29.78 in 10.0 mi SSW 6.9 mph - N/A   Scattered Clouds
2:36 AM 69.8 °F - 62.6 °F 78% 29.77 in 10.0 mi South 5.8 mph - N/A   Scattered Clouds
2:56 AM 69.8 °F - 62.6 °F 78% 29.78 in 10.0 mi SSW 4.6 mph - N/A   Clear
3:15 AM 71.6 °F - 62.6 °F 73% 29.79 in 10.0 mi SSW 5.8 mph - N/A   Clear
3:19 AM 71.6 °F - 62.6 °F 73% 29.79 in 10.0 mi SSW 4.6 mph - N/A   Clear
3:37 AM 71.6 °F - 62.6 °F 73% 29.78 in 10.0 mi SSW 5.8 mph - N/A   Clear
3:55 AM 71.6 °F - 62.6 °F 73% 29.79 in 10.0 mi SSW 6.9 mph - N/A   Clear
4:15 AM 71.6 °F - 64.4 °F 78% 29.78 in 10.0 mi SW 5.8 mph - 0.01 in   Clear
4:36 AM 71.6 °F - 64.4 °F 78% 29.78 in 10.0 mi SW 5.8 mph - 0.01 in   Clear
4:59 AM 71.6 °F - 64.4 °F 78% 29.77 in 10.0 mi SSW 6.9 mph - N/A   Clear
5:16 AM 69.8 °F - 64.4 °F 83% 29.77 in 10.0 mi SSW 4.6 mph - N/A   Clear
5:36 AM 69.8 °F - 64.4 °F 83% 29.78 in 10.0 mi SW 4.6 mph - N/A   Clear
5:56 AM 69.8 °F - 64.4 °F 83% 29.78 in 10.0 mi Calm Calm - N/A   Clear
6:15 AM 69.8 °F - 62.6 °F 78% 29.78 in 10.0 mi WSW 3.5 mph - N/A   Clear
6:20 AM 69.8 °F - 62.6 °F 78% 29.78 in 10.0 mi West 3.5 mph - N/A   Clear
6:37 AM 68.0 °F - 62.6 °F 83% 29.78 in 10.0 mi Calm Calm - N/A   Clear
6:55 AM 69.8 °F - 62.6 °F 78% 29.78 in 10.0 mi WSW 3.5 mph - N/A   Clear
6:59 AM 68.0 °F - 62.6 °F 83% 29.78 in 10.0 mi Calm Calm - N/A   Partly Cloudy
7:45 AM 71.6 °F - 62.6 °F 73% 29.77 in 10.0 mi WSW 4.6 mph - N/A   Partly Cloudy
8:45 AM 73.4 °F - 62.6 °F 69% 29.77 in 10.0 mi West 4.6 mph - N/A   Clear
9:50 AM 78.8 °F - 62.6 °F 57% 29.76 in 10.0 mi WSW 8.1 mph - N/A   Clear
10:55 AM 78.8 °F - 62.6 °F 57% 29.77 in 10.0 mi West 8.1 mph - N/A   Clear
11:45 AM 82.4 °F 83.4 °F 62.6 °F 51% 29.77 in 10.0 mi West 8.1 mph 17.3 mph N/A   Clear
12:45 PM 84.2 °F 85.0 °F 62.6 °F 48% 29.77 in 10.0 mi West 10.4 mph 18.4 mph N/A   Scattered Clouds
1:45 PM 86.0 °F 86.6 °F 62.6 °F 45% 29.77 in 10.0 mi West 12.7 mph 18.4 mph N/A   Scattered Clouds
2:45 PM 84.2 °F 84.4 °F 60.8 °F 45% 29.76 in 10.0 mi West 12.7 mph 18.4 mph N/A   Scattered Clouds
3:45 PM 84.2 °F 83.8 °F 59.0 °F 42% 29.76 in 10.0 mi WNW 12.7 mph 19.6 mph N/A   Scattered Clouds
4:45 PM 82.4 °F 82.5 °F 59.0 °F 45% 29.77 in 10.0 mi WNW 13.8 mph 19.6 mph N/A   Scattered Clouds
5:45 PM 82.4 °F 82.0 °F 57.2 °F 42% 29.77 in 10.0 mi WNW 17.3 mph 25.3 mph N/A   Scattered Clouds
6:45 PM 80.6 °F 80.8 °F 57.2 °F 45% 29.78 in 10.0 mi WNW 13.8 mph 23.0 mph N/A   Scattered Clouds
7:45 PM 78.8 °F - 59.0 °F 51% 29.79 in 10.0 mi NW 13.8 mph 23.0 mph N/A   Scattered Clouds
8:45 PM 75.2 °F - 60.8 °F 61% 29.80 in 10.0 mi NW 9.2 mph - N/A   Scattered Clouds
9:45 PM 73.4 °F - 59.0 °F 61% 29.82 in 10.0 mi NW 10.4 mph - N/A   Scattered Clouds
10:16 PM 71.6 °F - 59.0 °F 64% 29.84 in 10.0 mi NW 6.9 mph - 0.01 in   Clear
10:35 PM 69.8 °F - 59.0 °F 68% 29.84 in 10.0 mi WNW 5.8 mph - 0.01 in   Clear
10:39 PM 69.8 °F - 59.0 °F 68% 29.84 in 10.0 mi WNW 5.8 mph - 0.01 in   Clear
10:58 PM 69.8 °F - 57.2 °F 64% 29.85 in 10.0 mi NW 8.1 mph - N/A   Clear
11:15 PM 69.8 °F - 57.2 °F 64% 29.86 in 10.0 mi NW 10.4 mph - N/A   Clear
11:36 PM 69.8 °F - 55.4 °F 60% 29.87 in 10.0 mi NNW 8.1 mph 17.3 mph N/A   Clear
11:56 PM 68.0 °F - 55.4 °F 64% 29.88 in 10.0 mi NNW 9.2 mph - N/A   Clear